#timestamp,LO_Frequency,Hit 
1499637615.2,286046997.1,N
1499637635.1,286046997.4,N
1499637636.0,286046997.4,N
1499637655.8,286046995.8,N
1499637675.6,286046996.8,N
1499637695.5,286046999.6,N
1499637715.3,286046998.8,N
1499637735.2,286046998.3,N
1499637755.9,286046998.5,N
1499637775.7,286046998.2,N
1499637795.6,286046998.4,N
1499637815.4,286046998.5,N
1499637835.2,286046998.6,N
1499637855.1,286046998.2,N
1499637856.0,286046998.2,N
1499637875.8,286046998.4,N
1499637895.7,286047001.1,N
1499637915.5,286046999.8,N
1499637935.3,286047002.3,N
1499637955.2,286047000.0,N
1499637975.9,286046998.2,N
1499637995.7,286046998.5,N
1499638015.6,286046998.3,N
1499638035.4,286046998.4,N
1499638055.3,286047000.9,N
1499638075.1,286046998.4,N
1499638076.0,286046998.4,N
1499638095.8,286046999.4,N
1499638115.7,286046998.7,N
1499638135.5,286046999.4,N
1499638155.3,286046999.5,N
1499638175.2,286046997.7,N
1499638195.0,286046997.2,N
1499638195.9,286046997.2,N
1499638215.7,286046998.8,N
1499638235.6,286047000.9,N
1499638255.4,286046999.6,N
1499638275.3,286046996.5,N
1499638295.1,286046999.5,N
1499638296.0,286046999.5,N
1499638315.8,286046995.1,N
1499638335.7,286046993.4,N
1499638355.5,286046996.1,N
1499638375.3,286046995.9,N
1499638395.2,286046995.9,N
1499638415.0,286046994.3,N
1499638415.9,286046994.3,N
1499638435.8,286046993.8,N
1499638455.6,286046995.0,N
1499638475.4,286046995.2,N
1499638495.3,286046995.0,N
1499638515.1,286046994.0,N
1499638535.8,286046992.3,N
1499638555.7,286046994.1,N
1499638575.5,286046994.4,N
1499638595.4,286046992.1,N
1499638615.2,286046994.5,N
1499638635.0,286046994.5,N
1499638635.9,286046994.5,N
1499638655.8,286046993.7,N
1499638675.6,286046995.9,N
1499638695.4,286046993.6,N
1499638715.3,286046994.4,N
1499638735.1,286046994.4,N
1499638755.9,286046994.5,N
1499638775.7,286046994.4,N
1499638795.5,286046994.3,N
1499638815.4,286046992.6,N
1499638835.2,286046992.2,N
1499638855.0,286046994.6,N
1499638855.9,286046994.6,N
1499638875.8,286046992.5,N
1499638895.6,286046990.1,N
1499638915.5,286046992.1,N
1499638935.3,286046994.3,N
1499638955.1,286046994.8,N
1499638975.9,286046994.3,N
1499638995.7,286046992.1,N
1499639015.5,286046992.7,N
1499639035.4,286046993.2,N
1499639055.2,286046993.2,N
1499639075.1,286046992.5,N
1499639076.0,286046992.5,N
1499639095.8,286046991.1,N
1499639115.6,286046989.6,N
1499639135.5,286046989.1,N
1499639155.3,286046991.6,N
1499639175.2,286046992.7,N
1499639195.9,286046993.2,N
1499639215.7,286046991.3,N
1499639235.6,286046989.1,N
1499639255.4,286046989.7,N
1499639275.2,286046991.6,N
1499639295.1,286046990.4,N
1499639296.0,286046990.4,N
1499639315.8,286046992.4,N
1499639335.7,286046990.2,N
1499639355.5,286046989.0,N
1499639375.3,286046991.3,N
1499639395.2,286046990.9,N
1499639415.0,286046990.5,N
1499639415.9,286046990.5,N
1499639435.7,286046990.5,N
1499639455.6,286046991.5,N
1499639475.4,286046990.2,N
1499639495.3,286046990.6,N
1499639515.1,286046990.5,N
1499639516.0,286046990.5,N
1499639535.8,286046990.1,N
1499639555.7,286046990.5,N
1499639575.5,286046990.7,N
1499639595.3,286046993.2,N
1499639615.2,286046991.3,N
1499639635.0,286046990.4,N
1499639635.9,286046990.4,N
1499639655.8,286046992.6,N
1499639675.6,286046990.1,N
1499639695.4,286046990.7,N
1499639715.3,286046991.5,N
1499639735.1,286046990.8,N
1499639755.9,286046993.0,N
1499639775.7,286046991.0,N
1499639795.5,286046991.5,N
1499639815.4,286046990.3,N
1499639835.2,286046990.2,N
1499639855.0,286046990.1,N
1499639855.9,286046990.1,N
1499639875.8,286046993.0,N
1499639895.6,286046990.9,N
1499639915.5,286046989.7,N
1499639935.3,286046992.7,N
1499639955.1,286046993.1,N
1499639975.9,286046990.8,N
1499639995.7,286046989.0,N
1499640015.5,286046991.2,N
1499640035.4,286046990.8,N
1499640055.2,286046989.0,N
1499640075.1,286046990.2,N
1499640076.0,286046990.2,N
1499640095.8,286046990.9,N
1499640115.6,286046992.0,N
1499640135.5,286046992.3,N
1499640155.3,286046991.7,N
1499640175.1,286046992.6,N
1499640195.9,286046992.9,N
1499640215.7,286046990.2,N
1499640235.6,286046990.5,N
1499640255.4,286046993.1,N
1499640275.2,286046992.8,N
1499640295.1,286046988.7,N
1499640296.0,286046988.7,N
1499640315.8,286046989.0,N
1499640335.7,286046991.2,N
1499640355.5,286046992.9,N
1499640375.3,286046990.1,N
1499640395.2,286046993.0,N
1499640415.9,286046988.5,N
1499640435.7,286046991.8,N
1499640455.6,286046992.1,N
1499640475.4,286046989.0,N
1499640495.3,286046991.5,N
1499640515.1,286046988.8,N
1499640516.0,286046988.8,N
1499640535.8,286046991.2,N
1499640555.7,286046988.9,N
1499640575.5,286046989.1,N
1499640595.3,286046991.4,N
1499640615.2,286046989.6,N
1499640635.0,286046989.2,N
1499640635.9,286046989.2,N
1499640655.8,286046989.1,N
1499640675.6,286046989.1,N
1499640695.4,286046988.8,N
1499640715.3,286046988.7,N
1499640735.1,286046990.4,N
1499640755.8,286046990.6,N
1499640775.7,286046991.3,N
1499640795.5,286046990.9,N
1499640815.4,286046988.7,N
1499640835.2,286046989.2,N
1499640855.0,286046986.3,N
1499640855.9,286046991.2,N
1499640875.8,286046991.2,N
1499640895.6,286046987.7,N
1499640915.4,286046990.0,N
1499640935.3,286046989.6,N
1499640955.1,286046989.0,N
1499640975.9,286046991.5,N
1499640995.7,286046989.7,N
1499641015.5,286046988.7,N
1499641035.4,286046990.3,N
1499641055.2,286046989.3,N
1499641075.0,286046989.9,N
1499641076.0,286046989.9,N
1499641095.8,286046990.0,N
1499641115.6,286046988.7,N
1499641135.5,286046991.5,N
1499641155.3,286046990.5,N
1499641175.1,286046990.4,N
1499641195.9,286046987.4,N
